Regional Weather Roundup
Issued by NWS Charleston, WV

Home | Current Version | Previous Version | Graphics & Text | Print | Product List | Glossary On
Versions: 1 2 3 4 5 6 7 8 9 10 11 12 13 14 15 16 17 18 19 20 21 22 23 24 25 26 27 28
000
ASUS41 KRLX 162210
RWRRLX
West Virginia Regional Weather Roundup
National Weather Service Charleston WV
600 PM EDT MON OCT 16 2017

Note: "fair" indicates few or no clouds below 12,000 feet with no
significant weather and/or obstructions to visibility.

WVZ003-162300-
Northern Panhandle of West Virginia

CITY           SKY/WX    TMP DP  RH WIND       PRES   REMARKS
WHEELING       CLOUDY    54  31  41 NW9       30.24R
$$

WVZ009-162300-
Northwest West Virginia

CITY           SKY/WX    TMP DP  RH WIND       PRES   REMARKS
PARKERSBURG    PTCLDY    58  36  43 NW8       30.28R
$$

WVZ006-162300-
Western West Virginia

CITY           SKY/WX    TMP DP  RH WIND       PRES   REMARKS
HUNTINGTON     MOCLDY    58  38  47 N6        30.26S
$$

WVZ015-162300-
West Central West Virginia

CITY           SKY/WX    TMP DP  RH WIND       PRES   REMARKS
CHARLESTON     PTCLDY    58  35  42 NW13G18   30.24S
$$

WVZ022-031-162300-
North Central West Virginia

CITY           SKY/WX    TMP DP  RH WIND       PRES   REMARKS
CLARKSBURG     MOCLDY    56  41  57 CALM      30.23S
MORGANTOWN     PTCLDY    56  38  50 CALM      30.24R
$$

WVZ025-035-042-045-162300-
Southern West Virginia

CITY           SKY/WX    TMP DP  RH WIND       PRES   REMARKS
BECKLEY        PTCLDY    50  37  61 NW10      30.23R
LOGAN          MOCLDY    54  37  54 NW7       30.25R
BLUEFIELD      PTCLDY    50  31  48 N9G17     30.23R
LEWISBURG      CLEAR     51  38  60 N5        30.22R
$$

WVZ047-162300-
Northern Mountains of West Virginia

CITY           SKY/WX    TMP DP  RH WIND       PRES   REMARKS
ELKINS         PTCLDY    50  40  68 VRB3      30.24R
$$

WVZ052-162300-
Eastern Panhandle of West Virginia

CITY           SKY/WX    TMP DP  RH WIND       PRES   REMARKS
MARTINSBURG    CLEAR     60  32  34 N12G26    30.15R
PETERSBURG     CLEAR     55  37  49 NW9G16    30.20S
$$




USA.gov is the U.S. government's official web portal to all federal, state and local government web resources and services.